Flag for Panama Weather past 2 weeks in Panama, Panama

Now
82 °F

Broken clouds.


Feels Like: 94 °F
Forecast: N/A
Wind: 7 mph from Northwest

Location: Marcos A. Gelabert

Current Time: Jul 30, 2014 at 6:46:11 PM

Latest Report: Jul 30, 2014 at 6:00 PM


Visibility: 6 mi

Pressure: 29.80 "Hg

Humidity: 94%

Dew point: 81 °F

Location of PanamaLocation

Historic Weather in Panama — Graph

°F

Panama temperature yesterday

Maximum temperature yesterday: 93 °F (at 1:00 PM)
Minimum temperature yesterday: 79 °F (at 7:00 AM)
Average temperature yesterday: 84 °F

Past Weeks' High & Low Weather Summary

 TemperatureHumidityPressure
High93 °F (Jul 16, 2:00 PM)100% (Jul 27, 7:00 AM)29.95 "Hg (Jul 27, 7:00 AM)
Low73 °F (Jul 18, 12:00 PM)56% (Jul 29, 1:00 PM)29.71 "Hg (Jul 24, 3:00 PM)
Average83 °F82%29.84 "Hg
* Reported Jul 15 6:00 PM — Jul 30 6:00 PM, Panama, Weather by CustomWeather, © 2014

Note: Actual official high and low records may vary slightly from our data, if they occured in-between our weather recording intervals... More about our weather records

Advertising

Panama weather history for previous 24 hours

 ConditionsComfort  
Time TempWeatherWind HumidityBarometerVisibility
6:00 PM
Jul 30
82 °FBroken clouds.7 mph94%29.80 "Hg6 mi
5:00 PM82 °FBroken clouds.5 mph84%29.80 "Hg6 mi
4:00 PM81 °FScattered clouds.5 mph94%29.80 "HgN/A
3:00 PM79 °FThunderstorms. Broken clouds.6 mph94%29.83 "Hg5 mi
2:21 PMN/AThunderstorms.17 mphN/A29.83 "Hg2 mi
2:00 PM91 °FScattered clouds.5 mph63%29.83 "HgN/A
1:00 PM88 °FBroken clouds.3 mph70%29.86 "HgN/A
12:00 PM90 °FScattered clouds.7 mph67%29.86 "Hg6 mi
11:00 AM88 °FScattered clouds.5 mph70%29.89 "Hg6 mi
10:00 AM86 °FPartly sunny.5 mph75%29.89 "Hg6 mi
9:00 AM82 °FPartly sunny.No wind89%29.89 "Hg6 mi
8:00 AM82 °FScattered clouds.No wind89%29.89 "Hg5 mi
7:00 AM79 °FPartly sunny.5 mph94%29.89 "Hg6 mi
6:00 AM79 °FPassing clouds.No wind94%29.89 "Hg6 mi
10:00 PM
Jul 29
81 °FPassing clouds.2 mph89%29.89 "HgN/A
9:00 PM81 °FPassing clouds.5 mph94%29.86 "HgN/A
8:00 PM81 °FPartly cloudy.3 mph94%29.89 "HgN/A
7:00 PM82 °FPartly cloudy.5 mph89%29.86 "HgN/A
6:00 PM81 °FScattered clouds.6 mph89%29.80 "HgN/A
Weather by CustomWeather, © 2014

See weather overviewHow to use our weather pages